Find Kosmos-532

NORAD ID: 6267 Int'l Des: 1972-087 Owner: OKB10 Country: SU operational
LEO

Live Position

Loading 3D Globe...

About Kosmos-532

Description loading...

Upcoming Passes

Passes for default location (London). Set your location on the main map for personalized predictions.

Altitude History

Loading altitude history...

Two-Line Element Set

1 06267U 72087E 26103.53513319 -.00000015 00000-0 99689-5 0 9990
2 06267 74.0361 185.9441 0108650 249.3051 122.2619 12.69741197477097
Epoch: Apr 13, 2026 • Age: 19 hours

Current Status

Altitude 1441.1 km
Velocity 7.12 km/s
Sub-Earth Point 19.45°N, 128.76°W
Type other

Most Searched